{"data":{"norad_id":48311,"intl_designator":"2021-036AM","name":"STARLINK-2534","alt_names":[],"object_type":"PAYLOAD","status":"ACTIVE","operator":null,"country":"US","launch_date":"2021-04-29","launch_site_code":"AFETR","launch_vehicle":null,"mission":null,"orbit_class":"UNKNOWN","rcs_meters":null,"size_class":null,"mass_kg":null,"dimensions":null,"purposes":["comms"],"wikipedia_slug":null,"has_3d_model":false,"image_url":null,"decayed_at":null,"tle_current":{"epoch":"2026-09-20T00:04:22.905696Z","epoch_age_seconds":54200,"freshness":"FRESH","line1":"1 48311U 21036AM  26263.00304289 -.00000502  00000+0 -44033-5 0  9991","line2":"2 48311  53.1609 264.3618 0001338  88.5940 271.5215 15.31691360297996","mean_motion":15.3169136,"eccentricity":0.0001338,"inclination_deg":53.1609,"raan_deg":264.3618,"arg_perigee_deg":88.594,"mean_anomaly_deg":271.5215,"bstar":-4.4033e-6,"rev_number":29799,"period_min":94.013718272851,"perigee_km":469.84936754908,"apogee_km":471.68213392518,"semimajor_km":6848.9027507371,"source":"CELESTRAK","updated_at":"2026-09-20T09:00:38.934081Z"}}}